Tracking 35275 objects as of 9-Sep-2026
HD Live streaming from Space Station
objects crossing your sky now

LEAP-1

Track LEAP-1 now!
10-day predictions


NORAD ID: 65321
Int'l Code: 2025-188G
Launch date: August 26, 2025
Source: United States (US)
Launch site: AIR FORCE WESTERN TEST RANGE (AFWTR)
Your satellite tracking list
Your tracking list is empty




NASA's NSSDC Master Catalog

Two Line Element Set (TLE):
1 65321U 25188G   26252.17367872  .00001651  00000-0  16902-3 0  9993
2 65321  97.7302 324.9766 0001679 306.0307  54.0757 14.91845675 56375
Source of the keplerian elements: AFSPC